This demonstration page uses our WeatherBlox Daily Observations layout. Learn more.

Left ArrowRight Arrow

34.16533, -84.80231

Hourly Observations for October 21, 2015

Temp ( °F °C ) Dew Point ( °F °C ) Humidity (%) Winds ( mph kmh ) Pressure ( in mb ) Visibility ( mi km ) Precip ( " mm )
12:53 am 00:53 Clear 46 7.8 44 6.7 93 93 ENE 3 6 30.31 1027 10 16 0.00 0.00
1:53 am 01:53 Clear 45 7.2 44 6.7 97 97 Calm 30.30 1026 10 16 0.00 0.00
2:53 am 02:53 Clear 42 5.6 41 5 96 96 Calm 30.31 1026 10 16 0.00 0.00
3:53 am 03:53 Clear 42 5.6 41 5 96 96 E 3 6 30.31 1026 10 16 0.00 0.00
4:53 am 04:53 Clear 43 6.1 42 5.6 97 97 SE 3 6 30.31 1026 10 16 0.00 0.00
5:53 am 05:53 Clear 44 6.7 42 5.6 93 93 ESE 3 6 30.32 1027 10 16 0.00 0.00
6:53 am 06:53 Clear 44 6.7 42 5.6 93 93 ESE 3 6 30.34 1028 10 16 0.00 0.00
7:53 am 07:53 Sunny 43 6.1 42 5.6 97 97 Calm 30.37 1029 10 16 0.00 0.00
8:53 am 08:53 Sunny 47 8.3 45 7.2 93 93 Calm 30.39 1029 10 16 0.00 0.00
9:53 am 09:53 Sunny 52 11.1 47 8.3 83 83 Calm 30.41 1030 10 16 0.00 0.00
10:53 am 10:53 Sunny 58 14.4 46 7.8 65 65 NE 3 6 30.41 1030 10 16 0.00 0.00
11:53 am 11:53 Sunny 64 17.8 46 7.8 52 52 Calm 30.39 1029 10 16 0.00 0.00
12:53 pm 12:53 Sunny 67 19.4 46 7.8 47 47 Calm 30.37 1029 10 16 0.00 0.00
1:53 pm 13:53 Sunny 71 21.7 49 9.4 46 46 VRB 3 6 30.34 1027 10 16 0.00 0.00
2:53 pm 14:53 Sunny 73 22.8 50 10 44 44 VRB 5 7 30.30 1026 10 16 0.00 0.00
3:53 pm 15:53 Sunny 74 23.3 49 9.4 41 41 ESE 3 6 30.28 1026 10 16 0.00 0.00
4:53 pm 16:53 Sunny 74 23.3 48 8.9 40 40 Calm 30.28 1025 10 16 0.00 0.00
5:53 pm 17:53 Sunny 70 21.1 52 11.1 53 53 Calm 30.28 1025 10 16 0.00 0.00
6:53 pm 18:53 Sunny 58 14.4 55 12.8 90 90 Calm 30.28 1026 10 16 0.00 0.00
7:53 pm 19:53 Clear 54 12.2 52 11.1 93 93 Calm 30.30 1026 10 16 0.00 0.00
8:53 pm 20:53 Clear 53 11.7 51 10.6 93 93 Calm 30.31 1026 10 16 0.00 0.00
9:53 pm 21:53 Clear 50 10 50 10 100 100 Calm 30.31 1026 10 16 0.00 0.00
10:53 pm 22:53 Clear 49 9.4 48 8.9 97 97 Calm 30.31 1026 10 16 0.00 0.00
11:53 pm 23:53 Clear 48 8.9 48 8.9 100 100 Calm 30.31 1026 9 14 0.00 0.00

Powered by AerisWeather